星链-37859(STARLINK-37859)

导读

STARLINK-37859(NORAD编号69553)是美国太空探索技术公司(SpaceX)研发的Starlink v1.5版星链卫星,属于星链低轨互联网星座组成部分。该卫星运行于轨道倾角70°的近地轨道,轨道高度约570-574公里,运行周期96.1分钟,每日绕地约14.98圈,最大亮度可达2.5等,截至2026年仍处于正常工作状态,承担全球低轨互联网覆盖服务,可支撑偏远地区、海事及航空领域的网络接入需求。

基本信息
目录编号:
69553
目录名称:
STARLINK-37859
国际标识:
2026-135H
轨道中心:
EARTH
卫星名称:
星链-37859
卫星全名:
星链-37859(STARLINK-37859)
卫星状态:
在轨 (已飞行12 天)
发射日期:
2026-06-15 UTC
国别 :
美国 (US)
星等 :
--
轨道信息
数据来源 国际轨道数据
星历时间: 2026-06-27T09:57:58+0800
17小时前
查看轨道信息
半长轴: 6706.023km
偏心率: 0.0001056
轨道倾角: 97.283°
近地点辐角 53.957°
升交点赤经 205.671°
平近点角 306.180°
近地点: 327.177km
远地点: 328.595km
周期: 91.087分钟
每日圈数: 15.809031
详细信息
固有亮度:
5
最大亮度:
2.5
卫星平台:
Starlink V1.0
覆盖范围:
全球
运营商:
太空探索技术公司
运营商所在国:
美国
制造商(研发单位):
太空探索技术公司
制造商所在国:
美国
使用方式:
暂无
卫星简介
Starlink 计划是 SpaceX 推出的全球卫星互联网项目,通过发射低轨道卫星,为全球尤其是偏远地区提供高速、低延迟的互联网服务。自 2019 年起,Starlink 已部署数千颗卫星,旨在缩小全球数字鸿沟,推动互联网普及。该项目还为军事、航空等行业提供通信支持,带来广泛经济效益。
2D轨道图
3D轨道图
轨道高度分析图
轨道倾角分析图
轨道综合分析图
查看轨道综合分析图